This is the latest recevied weather packets stored in our database for station/object W5DRO-13. If no packets are shown the sender has not sent any weather packets the latest 10 day(s).
| Time | Temp. | Humidity | Pressure | Rain* | Wind** | Luminosity | Snow |
|---|---|---|---|---|---|---|---|
| 1777078906 | 19.44° C | 86% | 1008.7 hPa | 0 mm | - | - | - |
| 1777078602 | 20° C | 85% | 1008.4 hPa | 0 mm | - | - | - |
| 1777078298 | 20° C | 84% | 1008.4 hPa | 0 mm | - | - | - |
| 1777077993 | 20.56° C | 83% | 1008.4 hPa | 0 mm | - | - | - |
| 1777077689 | 20.56° C | 82% | 1008.2 hPa | 0 mm | - | - | - |
| 1777077385 | 20.56° C | 81% | 1008 hPa | 0 mm | - | - | - |
| 1777077084 | 21.11° C | 81% | 1008 hPa | 0 mm | - | - | - |
| 1777076780 | 21.11° C | 81% | 1008 hPa | 0 mm | - | - | - |
| 1777076477 | 21.11° C | 81% | 1008.1 hPa | 0 mm | - | - | - |
| 1777076177 | 21.11° C | 81% | 1008.1 hPa | 0 mm | - | - | - |
| 1777075874 | 21.11° C | 82% | 1008.1 hPa | 0 mm | - | - | - |
| 1777075569 | 21.67° C | 82% | 1007.9 hPa | 0 mm | - | - | - |
| 1777075265 | 21.67° C | 82% | 1007.9 hPa | 0 mm | - | - | - |
| 1777074962 | 22.22° C | 80% | 1007.9 hPa | 0 mm | - | - | - |
| 1777074656 | 22.78° C | 80% | 1007.7 hPa | 0 mm | - | - | - |
| 1777074352 | 22.22° C | 80% | 1008 hPa | 0 mm | - | - | - |
| 1777074050 | 22.22° C | 80% | 1007.7 hPa | 0 mm | - | - | - |
| 1777073745 | 22.22° C | 81% | 1007.5 hPa | 0 mm | - | - | - |
| 1777073441 | 21.67° C | 81% | 1007.5 hPa | 0 mm | - | - | - |
| 1777073136 | 21.67° C | 81% | 1007.5 hPa | 0 mm | - | - | - |
| 1777072834 | 22.22° C | 79% | 1007.5 hPa | 0 mm | - | - | - |
| 1777072532 | 21.67° C | 81% | 1007.7 hPa | 0 mm | - | - | - |
| 1777072227 | 21.67° C | 81% | 1007.7 hPa | 0 mm | - | - | - |
| 1777071922 | 21.67° C | 82% | 1007.8 hPa | 0 mm | - | - | - |
| 1777071619 | 21.67° C | 82% | 1007.9 hPa | 0 mm | - | - | - |
* Rain latest hour (hover to see other rain measurements)
** Current wind speed in m/s (hover to see current wind gust speed)